FW6369 Weather Reports


time (UTC)temp
C
wind
direction
speed
KPH
gust
KPH
rain 1hr
cm
rain 24hr
cm
rain mn
cm
humidity
%
barometer
mb
20260507124554 11 0 0.0 3.2 0.00 0.00 0.00 95 1018.6
20260507123053 11 0 0.0 4.8 0.00 0.00 0.00 95 1018.7
20260507121550 11 0 0.0 4.8 0.00 0.00 0.00 94 1018.7
20260507114551 11 0 1.6 6.4 0.00 0.00 0.00 94 1018.8
20260507113054 11 149 0.0 4.8 0.00 0.00 0.00 94 1018.8
20260507111549 11 0 0.0 6.4 0.00 0.00 0.00 94 1018.9
20260507110059 11 167 0.0 4.8 0.00 0.00 0.00 94 1018.9
20260507104552 11 0 0.0 6.4 0.00 0.00 0.00 94 1018.9
20260507103050 11 122 1.6 6.4 0.00 0.00 0.00 93 1018.9
20260507101557 11 93 0.0 4.8 0.00 0.00 0.00 94 1019.0
20260507100053 11 121 1.6 9.7 0.00 0.00 0.00 93 1019.1
20260507094556 11 136 1.6 4.8 0.00 0.00 0.00 93 1018.9
20260507093050 11 117 1.6 4.8 0.00 0.00 0.00 93 1019.1
20260507091547 11 113 3.2 11.3 0.00 0.00 0.00 92 1019.3
20260507090054 11 0 1.6 4.8 0.00 0.00 0.00 93 1019.3
20260507084558 11 136 3.2 9.7 0.00 0.00 0.00 92 1019.4
20260507083049 11 103 3.2 9.7 0.00 0.00 0.00 92 1019.3
20260507081550 11 109 6.4 11.3 0.00 0.00 0.00 92 1019.2
20260507080056 11 105 4.8 11.3 0.00 0.00 0.00 92 1019.2
20260507074549 11 114 3.2 8.0 0.00 0.00 0.00 92 1019.1
20260507073104 11 143 1.6 11.3 0.00 0.00 0.00 92 1019.2
20260507071551 11 107 1.6 9.7 0.00 0.00 0.00 92 1019.1
20260507070051 11 114 3.2 11.3 0.00 0.00 0.00 92 1019.0
20260507064604 11 98 3.2 11.3 0.00 0.00 0.00 92 1019.0
20260507063057 11 131 3.2 11.3 0.00 0.00 0.00 92 1018.9
20260507061551 11 150 3.2 9.7 0.00 0.00 0.00 91 1018.9
20260507060055 12 117 3.2 11.3 0.00 0.00 0.00 91 1018.8
20260507054553 12 120 3.2 9.7 0.00 0.00 0.00 91 1018.8
20260507053052 12 125 3.2 11.3 0.00 0.00 0.00 90 1018.8
20260507051557 12 123 1.6 8.0 0.00 0.00 0.00 90 1018.7
20260507044601 12 103 3.2 11.3 0.00 0.00 0.00 89 1018.7
20260507043053 12 90 3.2 11.3 0.00 0.00 0.00 88 1018.6
20260507041549 13 138 3.2 11.3 0.00 0.00 0.00 87 1018.6
20260507040107 13 136 4.8 16.1 0.00 0.00 0.00 86 1018.6
20260507034612 14 121 4.8 11.3 0.00 0.00 0.00 83 1018.5
20260507033106 15 135 3.2 12.9 0.00 0.00 0.00 82 1018.5
20260507031549 15 107 4.8 12.9 0.00 0.00 0.00 80 1018.3
20260507030048 16 136 4.8 12.9 0.00 0.00 0.00 78 1018.2
20260507024557 16 113 4.8 12.9 0.00 0.00 0.00 77 1018.2
20260507023048 17 97 8.0 14.5 0.00 0.00 0.00 75 1017.9
20260507021557 17 144 6.4 14.5 0.00 0.00 0.00 74 1017.8
20260507020050 18 168 6.4 12.9 0.00 0.00 0.00 73 1018.0
20260507014547 19 123 6.4 14.5 0.00 0.00 0.00 71 1018.1
20260507013050 20 93 8.0 17.7 0.00 0.00 0.00 69 1018.0
20260507011549 20 142 8.0 14.5 0.00 0.00 0.00 67 1018.0
20260507010054 21 138 9.7 17.7 0.00 0.00 0.00 66 1018.0
20260507004554 21 125 8.0 17.7 0.00 0.00 0.00 65 1018.0
20260507003053 21 127 9.7 17.7 0.00 0.00 0.00 63 1017.9
20260507001608 22 155 3.2 17.7 0.00 0.00 0.00 63 1017.9
20260507000054 22 103 6.4 16.1 0.00 0.00 0.00 62 1018.0
20260506234558 22 108 6.4 17.7 0.00 0.00 0.00 62 1017.9
20260506233053 23 205 4.8 12.9 0.00 0.00 0.00 60 1018.0
20260506231553 23 214 4.8 16.1 0.00 0.00 0.00 62 1018.2
20260506230054 23 191 3.2 9.7 0.00 0.00 0.00 61 1018.3
20260506224604 23 265 3.2 16.1 0.00 0.00 0.00 62 1018.3
20260506223054 23 211 1.6 14.5 0.00 0.00 0.00 63 1018.5
20260506221552 23 182 1.6 12.9 0.00 0.00 0.00 63 1018.6
20260506220106 23 200 3.2 12.9 0.00 0.00 0.00 64 1018.8
20260506214551 22 92 8.0 17.7 0.00 0.00 0.00 66 1018.9
20260506213051 23 109 8.0 22.5 0.00 0.00 0.00 65 1018.9
20260506211555 23 200 4.8 11.3 0.00 0.00 0.00 63 1019.1
20260506210055 23 212 3.2 12.9 0.00 0.00 0.00 66 1019.2
20260506204547 23 118 3.2 14.5 0.00 0.00 0.00 66 1019.3
20260506203058 23 136 4.8 9.7 0.00 0.00 0.00 64 1019.5
20260506201553 23 185 3.2 11.3 0.00 0.00 0.00 64 1019.5
20260506200052 23 206 1.6 12.9 0.00 0.00 0.00 66 1019.6
20260506194552 22 116 4.8 12.9 0.00 0.00 0.00 64 1019.7
20260506193053 22 205 1.6 9.7 0.00 0.00 0.00 65 1020.0
20260506191552 21 156 3.2 9.7 0.00 0.00 0.00 68 1020.0
20260506190051 20 109 3.2 9.7 0.00 0.00 0.00 68 1020.2
20260506184553 21 101 3.2 11.3 0.00 0.00 0.00 69 1020.2
20260506183056 20 123 1.6 11.3 0.00 0.00 0.00 70 1020.2
20260506181620 21 0 0.0 9.7 0.00 0.00 0.00 70 1020.2
20260506180055 21 208 3.2 8.0 0.00 0.00 0.00 69 1020.2
20260506174556 20 274 1.6 6.4 0.00 0.00 0.00 70 1020.3
20260506173121 19 317 1.6 6.4 0.00 0.00 0.00 73 1020.3
20260506171602 19 321 1.6 6.4 0.00 0.00 0.00 73 1020.4
20260506170104 18 300 1.6 6.4 0.00 0.00 0.00 76 1020.6
20260506164553 17 287 1.6 9.7 0.00 0.00 0.00 78 1020.6
20260506163048 17 271 1.6 4.8 0.00 0.00 0.00 80 1020.6
20260506161555 16 259 1.6 8.0 0.00 0.00 0.00 81 1020.7
20260506160110 15 346 0.0 4.8 0.00 0.00 0.00 85 1020.6
20260506154559 14 241 0.0 4.8 0.00 0.00 0.00 86 1020.6
20260506153055 14 0 0.0 3.2 0.00 0.00 0.00 88 1020.6
20260506151555 13 120 0.0 4.8 0.00 0.00 0.00 89 1020.6
20260506150052 13 0 1.6 3.2 0.00 0.00 0.00 90 1020.5
20260506144554 12 0 0.0 1.6 0.00 0.03 0.00 91 1020.6
20260506143053 12 0 0.0 3.2 0.00 0.03 0.00 92 1020.5
20260506141550 12 0 0.0 3.2 0.00 0.03 0.00 92 1020.4
20260506140053 12 0 0.0 1.6 0.00 0.03 0.00 93 1020.3
20260506134559 12 0 0.0 1.6 0.00 0.03 0.00 93 1020.1
20260506133058 12 0 0.0 1.6 0.00 0.03 0.00 92 1020.1
20260506131602 12 0 0.0 0.0 0.00 0.03 0.00 92 1020.0
20260506130054 12 0 0.0 0.0 0.00 0.03 0.00 92 1019.9